{"data":{"norad_id":68363,"epoch":"2026-06-06T00:23:00.182976Z","epoch_age_seconds":9272508,"freshness":"OLD","line1":"1 68363U 26061D   26157.01597434  .06244101 -11867-5  34339-3 0  9997","line2":"2 68363  82.2944  23.3733 0009168 231.2805 128.7676 16.41665357 11871","mean_motion":16.41665357,"eccentricity":0.0009168,"inclination_deg":82.2944,"raan_deg":23.3733,"arg_perigee_deg":231.2805,"mean_anomaly_deg":128.7676,"bstar":0.00034339,"rev_number":1187,"period_min":87.71580601734,"perigee_km":155.38074652744,"apogee_km":167.37159787999,"semimajor_km":6539.5131722037,"source":"CELESTRAK","updated_at":"2026-06-06T09:00:29.155412Z"}}